Showing default

LONGJIANG 3, 56874

Orbit data source: Space-Track

LONGJIANG 3, 56874 is a payload satellite owned by Harbin (CN) in LEO that was launched on Fri, 09 Jun 2023 UTC via a KUAIZHOU-1A launch vehicle from the Jiuquan Satellite Launch Center, China (JSC). Payloads include a variety of satellites, spacecraft, and rockets equipped with specific instruments for various scientific and technological missions. These include communications satellites like Starlink; space stations such as the ISS; scientific satellites like the Hubble; Earth observation satellites from companies like Planet Labs, Umbra, and HawkEye 360; GPS; miniature CubeSats for education and research; and military/defense satellites.

Loading next visibility...
LONGJIANG 3 details
Identifier
56874, 2023-082A
Orbit
LEO
Last TLE update9 hours ago
Origin
Flag of CNHarbin (CN / PRC)
ManufacturerHITSAT
MissionOperational Amateur Communications
Bus & MotorSATWARE-CS200, Unknown motor
Mass~120 kg wet, ~120 kg dry
Launch date (UTC)
2023-06-09 (2 years ago)
Launch vehicle
KUAIZHOU-1A
Launch site
Jiuquan Satellite Launch Center, China (JSC)
Object type
Payload
Rocket body
Debris
Shape & HBRBox, 1.5 m
Radar Cross Section2.000 m², Medium (>0.1 m² and < 1m²)

Expand to show TLE details & history

TLE from 9 hours ago
0 LONGJIANG 3
1 56874U 23082A   25044.42850778  .00031142  00000-0  86899-3 0  9995
2 56874  49.1187  16.6613 0003354 341.9081  18.1747 15.36390806 94356
Epoch: 2025-02-13T10:17Z
Definitive object data (Epoch: 2025-02-13T10:17:03.072Z)
Latitude-0.00001°
Longitude78.69373°
Altitude455.074 km
Speed7.642 km/s
True Right ascension01h 06m 38s
True Declination0° 00' 00"
Sunlit
Object was in daylight at TLE epoch
Visualization TLE readout
Latitude-46.66638°
Longitude-37.35913°
Altitude472.181 km
Speed7.63 km/s
Apparent Right ascension13h 27m 47s
Apparent Declination-59° 50' 47"
Sunlit
Object is in daylight
Visualization observer readout
Local Sidereal Time21:47:04
Azimuth220.717° SW
Elevation-50.788°
Doppler factor1
Orbital elements
Apogee altitude460.008 km
Perigee altitude455.423 km
Semi-major axis6,835.852 km
Eccentricity0.0003354
Inclination49.1187°
RAAN16.6613°
Arg. of periapsis341.9081°
True anomaly18.18669°
Mean anomaly18.1747°
Eccentric anomaly18.1807°
Mean motion3.8402 °/min
BSTAR0.00086899
Orbital period93.75 mins
Loading maneuver chart data...
Loading historical data...
Loading historical data...
Loading historical data...
Loading historical data...
Loading historical data...
Loading historical data...
Loading historical data...
Other satellites on launch #82 in the year 2023 (2023-06-09 UTC)

LONGJIANG 3 Visibility forecast

Observer location: undefined°, undefined

Span
Click to sort rows by Start time (UTC) header in descending order
Start Az.
Max El. time (UTC)
Max El. Az.
Max El.
End time (UTC)
End Az.
5 mins2025-02-14 00:30:15.759Z199.884° SSW2025-02-14 00:33:15.759Z127.805° SE27.983°2025-02-14 00:35:15.759Z82.183° E
4 mins2025-02-14 02:09:15.759Z283.624° WNW2025-02-14 02:11:15.759Z358.186° N31.277°2025-02-14 02:13:15.759Z40.656° NE
4 mins2025-02-14 05:26:15.759Z334.024° NNW2025-02-14 05:28:15.759Z22.259° NNE22.092°2025-02-14 05:30:15.759Z63.538° ENE
5 mins2025-02-14 07:04:15.759Z302.682° NW2025-02-14 07:06:15.759Z126.954° SE44.961°2025-02-14 07:09:15.759Z123.663° SE
|